Volver al catálogo

STELLA

ActivoCienciaSSO
NORAD 22824·PAYLOAD·🇫🇷 France

Lanzado Sep 26, 1993 desde Guiana Space Centre

Loading…

Próximos Pases (próximas 24 horas)

TLE

ActualizadoSource: CelesTrak SupGP

Época: Sep 14, 2026, 00:00 UTC

1 22824C 93061B   26257.00000000 -.00000046  00000+0 -18853-4 0  2576
2 22824  98.7624 321.5325 0005920 348.2407  69.9806 14.27472687    29

Sigue STELLA en tiempo real con AllMySat

Download on the App Store